Meadville, PA

8:23 AM EST on December 14, 2019 (GMT -0500)
Port Meadville

Weather History for KGKJ - October, 2019

Change the Weather History Date:

Friday, October 4, 2019

  Actual Average Record
Temperature  
Mean Temperature 49 °F -  
Max Temperature 57 °F 65 °F 84 °F (1951)
Min Temperature 41 °F 43 °F 26 °F (1952)
Degree Days  
Heating Degree Days 16    
Moisture  
Dew Point 46 °F    
Average Humidity 81    
Maximum Humidity 90    
Minimum Humidity 71    
Precipitation  
Precipitation 0.01 in - - ()
Sea Level Pressure  
Sea Level Pressure 30.24 in    
Wind  
Wind Speed 7 mph ()    
Max Wind Speed 14 mph    
Max Gust Speed 23 mph    
Visibility 10.0 miles    
Events Rain    
Averages and records for this station are not official NWS values.
T = Trace of Precipitation, MM = Missing Value Source: Averaged Metar Reports

Daily Weather History Graph

Daily Weather History Graph

Search for Another Location

Airport or City:

Astronomy

Oct. 04, 2019 Rise Set
Actual Time 7:20 AM EDT 6:57 PM EDT
Civil Twilight 6:52 AM EDT 7:25 PM EDT
Nautical Twilight 6:20 AM EDT 7:57 PM EDT
Astronomical Twilight 5:48 AM EDT 8:30 PM EDT
Moon 1:55 PM EDT (10/4) 11:21 PM EDT (10/4)
Length of Visible Light 12h 32m
Length of Day
11h 37m
Waxing Crescent, 39% of the Moon is Illuminated
Oct 4
Waxing Crescent
Oct 5
First Quarter
Oct 13
Full
Oct 21
Last Quarter
Oct 27
New

Hourly Weather History & Observations

Time (EDT) Temp. Windchill Dew Point Humidity Pressure Visibility Wind Dir Wind Speed Gust Speed Precip Events Conditions
12:53 AM 57.9 °F - 55.0 °F 90% 30.05 in 10.0 mi NNW 4.6 mph - N/A   Overcast
1:09 AM 57.9 °F - 54.0 °F 87% 30.07 in 10.0 mi Calm Calm - N/A   Overcast
1:53 AM 57.9 °F - 55.0 °F 90% 30.06 in 10.0 mi Variable 5.8 mph - N/A   Overcast
2:12 AM 57.9 °F - 55.0 °F 90% 30.08 in 10.0 mi NW 10.4 mph - N/A   Overcast
2:28 AM 57.9 °F - 53.1 °F 84% 30.08 in 10.0 mi NNW 8.1 mph 20.7 mph N/A   Overcast
2:53 AM 57.0 °F - 52.0 °F 83% 30.08 in 10.0 mi WNW 13.8 mph 19.6 mph N/A   Overcast
3:26 AM 55.9 °F - 51.1 °F 84% 30.10 in 10.0 mi NW 8.1 mph - N/A   Overcast
3:53 AM 55.9 °F - 51.1 °F 84% 30.09 in 10.0 mi WNW 6.9 mph - N/A   Overcast
4:53 AM 55.0 °F - 50.0 °F 83% 30.11 in 10.0 mi NW 8.1 mph - N/A   Overcast
5:26 AM 55.0 °F - 50.0 °F 83% 30.13 in 10.0 mi NW 10.4 mph - N/A   Overcast
5:53 AM 54.0 °F - 48.9 °F 83% 30.13 in 10.0 mi NW 9.2 mph - N/A   Mostly Cloudy
6:05 AM 54.0 °F - 48.9 °F 83% 30.14 in 10.0 mi NW 8.1 mph - N/A   Scattered Clouds
6:53 AM 53.1 °F - 48.9 °F 86% 30.15 in 10.0 mi NW 4.6 mph - N/A   Mostly Cloudy
7:53 AM 53.1 °F - 48.9 °F 86% 30.18 in 10.0 mi Variable 4.6 mph - N/A   Overcast
8:53 AM 53.1 °F - 50.0 °F 89% 30.21 in 10.0 mi North 8.1 mph - 0.00 in Rain Light Rain
9:17 AM 55.0 °F - 50.0 °F 83% 30.22 in 10.0 mi North 10.4 mph - 0.00 in   Mostly Cloudy
9:53 AM 51.1 °F - 48.0 °F 89% 30.25 in 10.0 mi NNE 13.8 mph 23.0 mph 0.01 in Rain Light Rain
10:20 AM 51.1 °F - 46.9 °F 86% 30.26 in 10.0 mi NNE 12.7 mph 21.9 mph 0.00 in   Overcast
10:37 AM 51.1 °F - 46.9 °F 86% 30.26 in 10.0 mi NNE 9.2 mph 17.3 mph 0.00 in   Overcast
10:53 AM 51.1 °F - 46.9 °F 86% 30.27 in 10.0 mi NNE 11.5 mph 18.4 mph 0.00 in   Overcast
11:12 AM 51.1 °F - 46.0 °F 83% 30.27 in 10.0 mi North 12.7 mph - N/A   Overcast
11:53 AM 53.1 °F - 45.0 °F 74% 30.29 in 10.0 mi NNE 11.5 mph - N/A   Overcast
12:53 PM 50.0 °F - 43.0 °F 77% 30.31 in 10.0 mi NNE 10.4 mph - N/A   Overcast
1:36 PM 48.9 °F - 44.1 °F 83% 30.31 in 10.0 mi NNE 9.2 mph - N/A   Overcast
1:46 PM 48.9 °F - 43.0 °F 80% 30.31 in 10.0 mi NE 8.1 mph - N/A   Overcast
1:53 PM 48.9 °F - 43.0 °F 80% 30.32 in 10.0 mi NNE 8.1 mph - N/A   Overcast
2:05 PM 48.9 °F - 43.0 °F 80% 30.31 in 10.0 mi NE 10.4 mph - N/A   Overcast
2:53 PM 50.0 °F - 43.0 °F 77% 30.32 in 10.0 mi NNE 9.2 mph - N/A   Overcast
3:35 PM 51.1 °F - 43.0 °F 74% 30.31 in 10.0 mi North 8.1 mph - N/A   Overcast
3:53 PM 51.1 °F - 42.1 °F 71% 30.32 in 10.0 mi North 8.1 mph - N/A   Overcast
4:41 PM 50.0 °F - 43.0 °F 77% 30.32 in 10.0 mi North 6.9 mph - N/A   Overcast
4:53 PM 48.9 °F - 41.0 °F 74% 30.33 in 10.0 mi North 6.9 mph - N/A   Overcast
5:53 PM 48.0 °F - 41.0 °F 77% 30.34 in 10.0 mi NNE 5.8 mph - N/A   Overcast
6:53 PM 48.0 °F - 39.0 °F 71% 30.35 in 10.0 mi NE 8.1 mph - N/A   Overcast
7:53 PM 46.9 °F - 37.9 °F 71% 30.36 in 10.0 mi ENE 5.8 mph - N/A   Overcast
8:53 PM 46.0 °F 42.5 °F 39.0 °F 76% 30.37 in 10.0 mi ENE 6.9 mph - N/A   Overcast
9:53 PM 45.0 °F 41.2 °F 37.9 °F 76% 30.38 in 10.0 mi ENE 6.9 mph - N/A   Mostly Cloudy
10:07 PM 44.1 °F 40.1 °F 37.0 °F 76% 30.36 in 10.0 mi ENE 6.9 mph - N/A   Scattered Clouds
10:53 PM 41.0 °F 36.4 °F 36.0 °F 82% 30.38 in 10.0 mi NE 6.9 mph - N/A   Clear
11:53 PM 42.1 °F 37.1 °F 37.0 °F 82% 30.39 in 10.0 mi ENE 8.1 mph - N/A   Clear